Date String (YYYY-MM-DD hh:mm:ss) UTC,Instrument flags,Ambient pressure (hPa),Sample flow (lpm),Bypass flow (lpm),Sample temperature (°C),Ambient temperature (°C),ASC tube jacket temperature (°C),LED temperature (°C),Box temperature (°C),Sample RH (%),Span deviation,Mass concentration (μg/m³),Mass concentration (μg/m³),Mass concentration (μg/m³)
DateTimeUTC,F1_M11,P_M11,Q1_M11,Q2_M11,T1_M11,T2_M11,T3_M11,T4_M11,T5_M11,U1_M11,ZSPAN_M11,X2_M11,X0_M11,X1_M11
2022-10-06 20:00:00,,0833.6,4.99,0.00,29.9,28.6,00.0,38.6,31.8,16.7,0001.9,0008.91,0021.46,0008.28
2022-10-06 20:01:00,,0833.5,5.01,0.00,29.9,28.7,00.0,38.6,31.7,16.7,0002.1,0008.95,0021.56,0008.32
2022-10-06 20:02:00,,0833.5,4.99,0.00,29.9,28.8,00.0,38.6,31.8,16.9,0002.4,0008.97,0021.44,0008.34
2022-10-06 20:03:00,,0833.5,5.01,0.00,30.0,28.9,00.0,38.6,31.9,16.9,0002.6,0008.96,0021.60,0008.32
2022-10-06 20:04:00,,0833.6,4.99,0.00,30.0,28.9,00.0,38.6,31.9,16.7,0002.9,0008.91,0020.39,0008.30
2022-10-06 20:05:00,,0833.6,5.01,0.00,30.0,28.2,00.0,38.6,31.9,16.7,0003.1,0008.98,0020.40,0008.32
2022-10-06 20:06:00,,0833.5,5.00,0.00,30.0,27.0,00.0,38.6,31.7,16.9,0003.2,0009.02,0019.81,0008.34
2022-10-06 20:07:00,,0833.5,4.99,0.00,29.9,26.9,00.0,38.6,31.7,17.0,0003.2,0009.02,0019.65,0008.37
2022-10-06 20:08:00,,0833.5,4.99,0.00,29.8,27.1,00.0,38.5,31.5,17.1,0003.2,0009.03,0019.06,0008.40
2022-10-06 20:09:00,,0833.5,5.00,0.00,29.8,27.4,00.0,38.5,31.5,17.1,0002.9,0009.00,0018.19,0008.36
2022-10-06 20:10:00,,0833.5,5.00,0.00,29.8,27.7,00.0,38.5,31.5,17.1,0002.6,0008.94,0017.11,0008.30
2022-10-06 20:11:00,,0833.5,5.01,0.00,29.8,28.0,00.0,38.5,31.6,16.5,0002.6,0008.94,0015.52,0008.30
2022-10-06 20:12:00,,0833.6,4.99,0.00,29.8,28.2,00.0,38.5,31.6,16.5,0002.3,0008.92,0015.48,0008.30
2022-10-06 20:13:00,,0833.5,5.00,0.00,29.8,28.3,00.0,38.5,31.7,16.5,0001.6,0008.90,0015.97,0008.29
2022-10-06 20:14:00,,0833.5,5.00,0.00,29.8,28.5,00.0,38.5,31.7,16.6,0000.9,0008.88,0016.31,0008.27
2022-10-06 20:15:00,,0833.4,5.01,0.00,29.8,28.6,00.0,38.5,31.7,16.3,0000.7,0008.87,0017.29,0008.28
2022-10-06 20:16:00,,0833.5,4.99,0.00,29.9,28.7,00.0,38.5,31.8,16.3,0000.2,0008.82,0017.27,0008.25
2022-10-06 20:17:00,,0833.4,5.01,0.00,29.9,28.8,00.0,38.5,31.8,16.5,0000.4,0008.80,0017.89,0008.22
2022-10-06 20:18:00,,0833.4,4.99,0.00,29.9,28.8,00.0,38.5,31.8,16.5,0000.6,0008.80,0017.81,0008.20
2022-10-06 20:19:00,,0833.4,5.02,0.00,29.9,28.6,00.0,38.6,31.9,16.5,0000.8,0008.81,0018.01,0008.19
2022-10-06 20:20:00,,0833.5,4.99,0.00,29.9,27.3,00.0,38.6,31.7,16.7,0001.0,0008.83,0018.30,0008.20
2022-10-06 20:21:00,,0833.4,4.99,0.00,29.9,26.8,00.0,38.5,31.6,16.6,0001.0,0008.84,0018.68,0008.20
2022-10-06 20:22:00,,0833.4,4.99,0.00,29.8,27.0,00.0,38.5,31.5,16.4,0001.0,0008.81,0019.39,0008.18
2022-10-06 20:23:00,,0833.4,5.00,0.00,29.8,27.2,00.0,38.5,31.5,16.5,0001.1,0008.81,0019.32,0008.16
2022-10-06 20:24:00,,0833.4,5.01,0.00,29.7,27.6,00.0,38.5,31.5,16.6,0001.4,0008.83,0018.96,0008.15
2022-10-06 20:25:00,,0833.4,4.99,0.00,29.7,27.8,00.0,38.4,31.5,16.6,0001.7,0008.85,0018.91,0008.15
2022-10-06 20:26:00,,0833.3,5.00,0.00,29.7,28.1,00.0,38.4,31.5,16.8,0001.7,0008.87,0018.37,0008.09
2022-10-06 20:27:00,,0833.3,5.01,0.00,29.8,28.3,00.0,38.4,31.6,16.6,0001.4,0008.82,0018.28,0008.04
2022-10-06 20:28:00,,0833.3,5.00,0.00,29.8,28.4,00.0,38.4,31.7,16.4,0001.2,0008.78,0018.64,0008.02
2022-10-06 20:29:00,,0833.4,4.99,0.00,29.8,28.5,00.0,38.5,31.7,16.6,0001.1,0008.73,0019.18,0008.00
2022-10-06 20:30:00,,0833.4,5.01,0.00,29.8,28.7,00.0,38.5,31.7,16.8,0001.2,0008.66,0018.69,0007.96
2022-10-06 20:31:00,,0833.4,5.00,0.00,29.8,28.8,00.0,38.5,31.7,16.5,0001.2,0008.60,0018.82,0007.93
2022-10-06 20:32:00,,0833.3,5.01,0.00,29.9,28.9,00.0,38.5,31.8,16.4,0001.4,0008.61,0019.02,0007.93
2022-10-06 20:33:00,,0833.3,5.00,0.00,29.9,28.9,00.0,38.5,31.8,16.4,0001.5,0008.57,0018.20,0007.88
2022-10-06 20:34:00,,0833.3,5.00,0.00,29.9,28.7,00.0,38.5,31.9,16.4,0001.4,0008.51,0017.84,0007.85
2022-10-06 20:35:00,,0833.3,4.99,0.00,29.9,27.3,00.0,38.5,31.7,16.6,0001.3,0008.45,0017.72,0007.79
2022-10-06 20:36:00,,0833.3,5.00,0.00,29.9,26.9,00.0,38.5,31.6,16.8,0001.4,0008.39,0017.37,0007.75
2022-10-06 20:37:00,,0833.3,5.00,0.00,29.8,27.0,00.0,38.5,31.5,16.5,0001.4,0008.32,0017.18,0007.73
2022-10-06 20:38:00,,0833.4,5.00,0.00,29.7,27.3,00.0,38.4,31.4,16.2,0001.8,0008.29,0017.44,0007.74
2022-10-06 20:39:00,,0833.4,5.00,0.00,29.7,27.6,00.0,38.4,31.5,16.3,0001.9,0008.25,0017.19,0007.73
2022-10-06 20:40:00,,0833.3,5.00,0.00,29.7,27.8,00.0,38.4,31.5,16.3,0001.7,0008.24,0016.68,0007.73
2022-10-06 20:41:00,,0833.4,4.99,0.00,29.7,28.1,00.0,38.4,31.5,16.4,0001.6,0008.29,0016.89,0007.77
2022-10-06 20:42:00,,0833.2,5.02,0.00,29.7,28.3,00.0,38.4,31.6,16.6,0001.7,0008.32,0016.46,0007.77
2022-10-06 20:43:00,,0833.3,4.99,0.00,29.7,28.4,00.0,38.4,31.6,16.5,0001.4,0008.32,0015.80,0007.78
2022-10-06 20:44:00,,0833.3,5.01,0.00,29.8,28.6,00.0,38.4,31.7,16.4,0001.0,0008.41,0016.30,0007.84
2022-10-06 20:45:00,,0833.3,4.99,0.00,29.8,28.7,00.0,38.5,31.7,16.5,0001.0,0008.45,0016.25,0007.88
2022-10-06 20:46:00,,0833.3,5.01,0.00,29.8,28.8,00.0,38.5,31.8,16.6,0001.3,0008.53,0016.97,0007.94
2022-10-06 20:47:00,,0833.3,4.99,0.00,29.9,28.9,00.0,38.5,31.7,16.8,0000.9,0008.61,0017.24,0008.00
2022-10-06 20:48:00,,0833.3,5.00,0.00,29.9,28.9,00.0,38.5,31.8,16.8,0001.3,0008.68,0017.69,0008.08
2022-10-06 20:49:00,,0833.2,5.01,0.00,29.9,27.9,00.0,38.5,31.8,16.7,0001.5,0008.75,0017.99,0008.14
2022-10-06 20:50:00,,0833.1,5.00,0.00,29.8,27.0,00.0,38.5,31.6,16.7,0001.9,0008.86,0017.39,0008.22
2022-10-06 20:51:00,,0833.2,4.99,0.00,29.8,27.0,00.0,38.5,31.5,16.9,0002.0,0008.92,0017.08,0008.29
2022-10-06 20:52:00,,0833.1,5.00,0.00,29.7,27.2,00.0,38.4,31.5,17.2,0002.0,0008.90,0016.94,0008.29
2022-10-06 20:53:00,,0833.2,5.00,0.00,29.7,27.5,00.0,38.4,31.5,17.0,0001.9,0008.89,0016.83,0008.30
2022-10-06 20:54:00,,0833.1,4.98,0.00,29.7,27.8,00.0,38.4,31.5,16.9,0002.0,0008.88,0016.72,0008.31
2022-10-06 20:55:00,,0833.2,5.02,0.00,29.7,28.0,00.0,38.4,31.5,17.1,0002.0,0008.77,0016.21,0008.24
2022-10-06 20:56:00,,0833.2,4.99,0.00,29.7,28.2,00.0,38.4,31.6,17.4,0002.0,0008.67,0016.80,0008.15
2022-10-06 20:57:00,,0833.1,5.00,0.00,29.7,28.4,00.0,38.4,31.6,17.3,0002.0,0008.58,0016.59,0008.08
2022-10-06 20:58:00,,0833.2,4.99,0.00,29.8,28.5,00.0,38.4,31.7,17.4,0002.3,0008.49,0016.18,0007.99
2022-10-06 20:59:00,,0833.1,5.01,0.00,29.8,28.7,00.0,38.5,31.7,17.0,0002.0,0008.39,0015.40,0007.88
